Location: B
(0.0000°N, 0.0000°E)
Time: 04:32:47
(UTC+02:00)

Amateur Radio Satellites - All Passes

Search period start: 01 July 2016 04:02
Search period end: 02 July 2016 04:02
Location: B, 0.0000°N, 0.0000°E

Satellite Date Start Highest point End Downlink Frequencies (MHz)
Time Altitude Azimuth
Gurwin Techsat 1B 01 Jul 04:07:11 04:12:20 52° 283° (WNW) 04:17:30 435.225
PHONESAT 2.4 01 Jul 04:10:53 04:13:17 21° 317° (NW) 04:15:41 2401.200-2431.200
SO-50 01 Jul 04:19:11 04:20:49 12° 248° (WSW) 04:22:26 436.795
JUGNU 01 Jul 04:24:00 04:24:37 10° 185° (S) 04:25:14 437.505
BEESAT 01 Jul 04:27:56 04:32:25 41° 258° (WSW) 04:36:54 436.000
ITUPSAT 1 01 Jul 04:30:38 04:35:06 39° 258° (WSW) 04:39:33 437.325
AIST 2 01 Jul 04:32:02 04:36:01 52° 291° (WNW) 04:40:01 435.215
KKS-1 01 Jul 04:38:46 04:41:31 16° 78° (ENE) 04:44:16 437.445
MOZHAYETS 4 01 Jul 04:46:20 04:49:35 19° 78° (ENE) 04:52:51
AO-7 01 Jul 04:59:52 05:07:59 56° 106° (ESE) 05:16:04 29.400- 29.500
STARS 01 Jul 05:04:26 05:06:54 15° 78° (ENE) 05:09:21 437.465
AIST 1 01 Jul 05:30:13 05:34:19 46° 86° (E) 05:38:27
ISS 01 Jul 05:37:01 05:38:22 12° 126° (SE) 05:39:44 145.825
ITAMSAT 1 01 Jul 05:40:06 05:43:03 15° 283° (WNW) 05:45:59 435.822/435.867
SRMSAT 01 Jul 05:40:06 05:42:52 13° 190° (S) 05:45:39 437.500
GONETS M04 01 Jul 06:05:07 06:11:01 20° 87° (E) 06:16:57
JUGNU 01 Jul 06:13:58 06:14:49 10° 174° (S) 06:15:41 437.505
KKS-1 01 Jul 06:14:26 06:17:49 21° 258° (WSW) 06:21:11 437.445
HORYU 2 01 Jul 06:15:00 06:19:20 48° 102° (ESE) 06:23:39 437.375
Cosmos 2499 01 Jul 06:17:26 06:19:04 11° 85° (E) 06:20:41 435.465 / 435.565
CUBESAT XI-V 01 Jul 06:20:14 06:23:59 24° 78° (ENE) 06:27:42 437.345
MOZHAYETS 4 01 Jul 06:23:09 06:26:29 20° 258° (WSW) 06:29:49
STARS 01 Jul 06:39:33 06:42:59 23° 258° (WSW) 06:46:24 437.465
NOAA 18 01 Jul 06:43:08 06:44:05 10° 104° (ESE) 06:45:01 137.9125
AO-7 01 Jul 06:55:00 07:00:20 19° 287° (WNW) 07:05:42 29.400- 29.500
CUTE-I 01 Jul 06:59:19 07:02:24 16° 103° (ESE) 07:05:29 437.470
ISS 01 Jul 07:12:11 07:14:37 19° 305° (NW) 07:17:03 145.825
NOAA 15 01 Jul 07:17:11 07:22:04 40° 103° (ESE) 07:26:58 137.62
CUSAT 1 01 Jul 07:31:11 07:38:43 45° 95° (E) 07:46:01 437.405
BRITE-PL 01 Jul 07:35:51 07:40:09 69° 102° (ESE) 07:44:50 437.365/2234.400
LilacSat-2 01 Jul 07:41:57 07:45:43 50° 101° (ESE) 07:49:29 437.200
GOMX 1 01 Jul 07:56:11 08:00:36 47° 102° (ESE) 08:05:20 467.674
CUBESAT XI-V 01 Jul 07:58:02 08:01:05 17° 258° (WSW) 08:04:07 437.345
GONETS M04 01 Jul 07:59:04 08:07:25 50° 267° (W) 08:15:53
JUGNU 01 Jul 08:00:44 08:04:44 19° 165° (SSE) 08:08:44 437.505
Cubesat XI-IV 01 Jul 08:03:19 08:08:41 86° 283° (WNW) 08:14:04 437.490
Cosmos 2499 01 Jul 08:03:58 08:12:05 71° 267° (W) 08:19:36 435.465 / 435.565
AO-85 01 Jul 08:08:47 08:11:44 20° 67° (ENE) 08:14:36 145.980
DANDE 01 Jul 08:17:14 08:24:44 50° 94° (E) 08:32:46 436.750
NOAA 18 01 Jul 08:19:03 08:24:25 52° 283° (WNW) 08:29:48 137.9125
CUTE-I 01 Jul 08:37:23 08:42:09 34° 283° (WNW) 08:46:57 437.470
STRAND 1 01 Jul 08:42:38 08:47:41 59° 77° (ENE) 08:52:42 437.568
DOVE 4 01 Jul 08:43:02 08:47:46 76° 102° (ESE) 08:52:50 437.250
NOAA 15 01 Jul 08:59:31 09:01:33 12° 283° (WNW) 09:03:37 137.62
CUSAT 1 01 Jul 09:14:18 09:20:26 24° 274° (W) 09:26:25 437.405
HO-68 01 Jul 09:19:09 09:26:03 50° 104° (ESE) 09:32:57 435.675
CINEMA 3 01 Jul 09:19:37 09:24:20 50° 102° (ESE) 09:29:12 145.822/145.860
SRMSAT 01 Jul 09:20:38 09:23:30 14° 169° (S) 09:26:23 437.500
COMPASS 1 01 Jul 09:21:45 09:24:14 16° 102° (ESE) 09:26:42 437.405
CANX-2 01 Jul 09:28:48 09:32:58 63° 101° (E) 09:37:09 2200.000
UWE-3 01 Jul 09:43:12 09:45:28 13° 102° (ESE) 09:47:43 435.000/436.395/437.385
AUBIESAT-1 01 Jul 09:44:40 09:45:42 11° 107° (ESE) 09:46:45 437.475
SEEDS 01 Jul 09:47:18 09:51:25 63° 101° (E) 09:55:33 437.485
PRISM 01 Jul 09:47:54 09:51:46 36° 78° (ENE) 09:55:35 437.425
CUTE 1.7 + AOD 2 01 Jul 09:48:12 09:52:26 79° 280° (W) 09:56:39 437.475
JUGNU 01 Jul 09:48:30 09:54:05 44° 160° (SSE) 09:59:41 437.505
AO-85 01 Jul 09:50:33 09:51:51 11° 248° (WSW) 09:53:09 145.980
DANDE 01 Jul 10:01:30 10:07:21 23° 276° (W) 10:13:30 436.750
AAUSAT CUBESAT 2 01 Jul 10:18:36 10:22:43 87° 103° (ESE) 10:26:50 437.432
M-CUBED/EXP-1 PRIME 01 Jul 10:22:52 10:27:11 50° 106° (ESE) 10:31:43 437.505
CUBEBUG 2 01 Jul 10:35:23 10:40:06 69° 282° (WNW) 10:44:50 437.445
ZACube-1 01 Jul 10:49:48 10:54:21 68° 102° (ESE) 10:58:53 437.345
Oscar 11 01 Jul 10:54:23 10:58:42 85° 99° (E) 11:03:02 145.826/435.025
COMPASS 1 01 Jul 10:56:36 10:59:32 19° 282° (WNW) 11:02:28 437.405
FUNcube-1 01 Jul 11:05:48 11:10:21 78° 283° (WNW) 11:14:54 145.935
SRMSAT 01 Jul 11:08:16 11:13:20 28° 162° (SSE) 11:18:25 437.500
HO-68 01 Jul 11:09:02 11:13:25 17° 285° (WNW) 11:17:49 435.675
AUBIESAT-1 01 Jul 11:15:42 11:19:47 38° 285° (WNW) 11:24:04 437.475
UWE-3 01 Jul 11:17:35 11:21:38 30° 282° (WNW) 11:25:42 435.000/436.395/437.385
TIGRISAT 01 Jul 11:21:08 11:24:17 20° 78° (ENE) 11:27:26 435.000
UNISAT 6 01 Jul 11:26:46 11:30:22 27° 78° (ENE) 11:33:58 437.425
RS-15 01 Jul 11:28:04 11:39:01 83° 110° (ESE) 11:50:26 29.354- 29.394
JUGNU 01 Jul 11:37:16 11:43:09 67° 339° (NNW) 11:49:03 437.505
HUMSAT D 01 Jul 11:38:59 11:43:05 48° 101° (ESE) 11:47:10 437.325/437.525
DELFI C3 01 Jul 11:42:30 11:46:17 48° 281° (WNW) 11:50:05 145.870
ANTELSAT 01 Jul 12:05:46 12:10:01 78° 258° (WSW) 12:14:17 437.575/2403.000
ESTCUBE 1 01 Jul 12:15:57 12:18:48 17° 102° (ESE) 12:21:40 437.505/2401.250
NANOSAT C BR1 01 Jul 12:39:07 12:42:37 26° 78° (ENE) 12:46:05 145.865
YUBILEINY 01 Jul 12:39:27 12:46:33 28° 93° (E) 12:53:37 435.215
QB50P1 01 Jul 12:43:32 12:47:17 32° 78° (ENE) 12:51:01 145.935-145.965
POPSAT HIP 1 01 Jul 12:46:57 12:50:47 35° 79° (ENE) 12:54:36 437.405
CUBEBUG 1 01 Jul 12:46:59 12:50:40 27° 102° (ESE) 12:54:22 437.445
SRMSAT 01 Jul 12:56:41 13:02:42 74° 159° (SSE) 13:08:42 437.500
DUCHIFAT 1 01 Jul 12:57:46 13:01:46 46° 78° (ENE) 13:05:44 145.980
TIGRISAT 01 Jul 12:58:15 13:00:43 15° 258° (WSW) 13:03:12 435.000
QB50P2 01 Jul 12:59:41 13:03:51 63° 78° (ENE) 13:07:58 145.880/145.840
VELOX 1 01 Jul 13:02:12 13:06:20 40° 102° (ESE) 13:10:29 145.980
POLYITAN 1 01 Jul 13:02:19 13:06:28 65° 79° (ENE) 13:10:37 437.675
BEESAT 3 01 Jul 13:03:02 13:06:00 20° 68° (ENE) 13:08:58 437.485
UNISAT 6 01 Jul 13:05:27 13:06:49 11° 258° (WSW) 13:08:12 437.425
50 SAT 01 Jul 13:11:59 13:15:35 67° 102° (ESE) 13:19:11 437.505
Cosmos 2491 01 Jul 13:21:06 13:29:46 71° 87° (E) 13:38:29 435.465 / 435.565
SPROUT 01 Jul 13:24:08 13:27:48 27° 102° (ESE) 13:31:29 437.525
JUGNU 01 Jul 13:27:30 13:32:22 26° 343° (NNW) 13:37:15 437.505
UKube-1 01 Jul 13:27:41 13:31:51 50° 102° (ESE) 13:36:02 .
BUGSAT 1 01 Jul 13:41:40 13:45:44 75° 79° (E) 13:49:44 437.445
AISAT 01 Jul 13:43:16 13:47:29 46° 282° (WNW) 13:51:45 437.250
BEESAT 2 01 Jul 13:45:54 13:49:37 39° 68° (ENE) 13:53:19 435.950
RS-15 01 Jul 13:46:20 13:51:22 14° 295° (WNW) 13:56:31 29.354- 29.394
PCSat 01 Jul 13:50:06 13:55:27 67° 251° (WSW) 14:00:48 145.827
ESTCUBE 1 01 Jul 13:51:58 13:55:20 21° 282° (WNW) 13:58:44 437.505/2401.250
DX 1 01 Jul 13:53:01 13:57:12 49° 282° (WNW) 14:01:25 434.975-435.025
Cosmos 2504 01 Jul 13:54:48 14:00:40 24° 92° (E) 14:06:46 435.465 / 435.565
JAS-2 01 Jul 14:15:45 14:23:40 84° 77° (ENE) 14:31:18 435.910
NANOSAT C BR1 01 Jul 14:16:43 14:18:04 11° 258° (WSW) 14:19:26 145.865
CUBEBUG 1 01 Jul 14:24:59 14:26:41 12° 282° (WNW) 14:28:24 437.445
Oscar 19 01 Jul 14:26:22 14:30:42 27° 77° (ENE) 14:34:59 437.125/150
TISAT 1 01 Jul 14:33:16 14:37:19 46° 102° (ESE) 14:41:24 437.305
YUBILEINY 01 Jul 14:35:14 14:42:57 36° 273° (W) 14:50:40 435.215
O/OREOS (USA 219) 01 Jul 14:39:10 14:43:40 76° 255° (WSW) 14:48:12 437.305
BEESAT 3 01 Jul 14:41:34 14:43:25 13° 248° (WSW) 14:45:17 437.485
SRMSAT 01 Jul 14:46:19 14:51:57 41° 340° (NNW) 14:57:35 437.500
SO-50 01 Jul 14:48:25 14:53:08 58° 112° (ESE) 14:57:55 436.795
SPROUT 01 Jul 15:01:59 15:03:29 12° 282° (WNW) 15:04:59 437.525
Gurwin Techsat 1B 01 Jul 15:06:40 15:11:12 29° 77° (ENE) 15:15:43 435.225
BEESAT 01 Jul 15:13:24 15:16:45 19° 103° (ESE) 15:20:07 436.000
ITUPSAT 1 01 Jul 15:16:17 15:19:48 20° 103° (ESE) 15:23:18 437.325
JUGNU 01 Jul 15:19:28 15:22:05 13° 350° (N) 15:24:42 437.505
Cosmos 2491 01 Jul 15:23:07 15:26:14 12° 267° (W) 15:29:22 435.465 / 435.565
PHONESAT 2.4 01 Jul 15:38:21 15:41:13 36° 223° (SW) 15:44:06 2401.200-2431.200
Cosmos 2504 01 Jul 15:46:43 15:53:36 37° 274° (W) 16:00:56 435.465 / 435.565
Oscar 19 01 Jul 16:06:15 16:09:44 18° 257° (WSW) 16:13:12 437.125/150
JAS-2 01 Jul 16:06:42 16:08:05 11° 255° (WSW) 16:09:29 435.910
SWISSCUBE 01 Jul 16:24:56 16:29:21 40° 282° (WNW) 16:33:48 437.505
AIST 2 01 Jul 16:30:25 16:34:20 42° 248° (WSW) 16:38:15 435.215
ITAMSAT 1 01 Jul 16:33:39 16:38:51 88° 78° (ENE) 16:44:04 435.822/435.867
SRMSAT 01 Jul 16:37:36 16:41:33 18° 346° (NNW) 16:45:30 437.500
Gurwin Techsat 1B 01 Jul 16:47:20 16:50:52 18° 257° (WSW) 16:54:23 435.225
KKS-1 01 Jul 16:50:17 16:53:53 24° 102° (ESE) 16:57:30 437.445
BEESAT 01 Jul 16:50:39 16:54:15 22° 283° (WNW) 16:57:53 436.000
ITUPSAT 1 01 Jul 16:53:52 16:57:21 20° 283° (WNW) 17:00:51 437.325
MOZHAYETS 4 01 Jul 17:02:13 17:06:17 32° 102° (ESE) 17:10:21
STARS 01 Jul 17:14:19 17:17:41 21° 103° (ESE) 17:21:02 437.465
AO-7 01 Jul 17:26:00 17:34:20 88° 74° (ENE) 17:42:41 29.400- 29.500
AIST 1 01 Jul 17:36:44 17:41:05 69° 95° (E) 17:45:23
Cosmos 2499 01 Jul 18:23:27 18:27:40 15° 92° (E) 18:32:01 435.465 / 435.565
HORYU 2 01 Jul 18:27:24 18:31:48 73° 78° (ENE) 18:36:12 437.375
KKS-1 01 Jul 18:27:41 18:30:11 15° 282° (WNW) 18:32:42 437.445
SRMSAT 01 Jul 18:30:45 18:31:42 10° 355° (N) 18:32:38 437.500
GONETS M04 01 Jul 18:36:46 18:44:50 41° 93° (E) 18:52:48
CUBESAT XI-V 01 Jul 18:37:54 18:42:11 40° 102° (ESE) 18:46:29 437.345
MOZHAYETS 4 01 Jul 18:41:36 18:43:10 12° 282° (WNW) 18:44:45
ISS 01 Jul 18:45:16 18:48:13 32° 234° (SW) 18:51:10 145.825
STARS 01 Jul 18:50:58 18:53:46 17° 282° (WNW) 18:56:34 437.465
JUGNU 01 Jul 18:59:21 19:02:25 14° 11° (N) 19:05:28 437.505
Cubesat XI-IV 01 Jul 19:04:53 19:08:27 18° 77° (ENE) 19:12:00 437.490
NOAA 18 01 Jul 19:23:33 19:28:29 35° 77° (ENE) 19:33:23 137.9125
CUTE-I 01 Jul 19:36:39 19:41:43 45° 77° (ENE) 19:46:47 437.470
LilacSat-2 01 Jul 19:36:46 19:40:18 39° 79° (ENE) 19:43:49 437.200
NOAA 15 01 Jul 19:54:13 19:59:31 72° 257° (WSW) 20:04:47 137.62
BRITE-PL 01 Jul 20:02:32 20:07:52 52° 257° (WSW) 20:12:51 437.365/2234.400
Cosmos 2499 01 Jul 20:12:40 20:20:13 57° 274° (W) 20:28:23 435.465 / 435.565
CUSAT 1 01 Jul 20:14:09 20:16:40 62° 265° (W) 20:19:22 437.405
AO-85 01 Jul 20:18:58 20:24:05 51° 111° (ESE) 20:29:20 145.980
GOMX 1 01 Jul 20:20:14 20:25:18 81° 259° (W) 20:29:58 467.674
SRMSAT 01 Jul 20:20:40 20:22:05 11° 6° (N) 20:23:30 437.500
GONETS M04 01 Jul 20:34:33 20:41:15 25° 273° (W) 20:47:57
Cubesat XI-IV 01 Jul 20:43:42 20:48:14 29° 257° (WSW) 20:52:47 437.490
JUGNU 01 Jul 20:46:53 20:52:03 30° 19° (NNE) 20:57:11 437.505
DOVE 4 01 Jul 21:04:45 21:09:19 53° 258° (WSW) 21:13:35 437.250
NOAA 18 01 Jul 21:05:44 21:08:51 15° 256° (WSW) 21:11:57 137.9125
DANDE 01 Jul 21:07:36 21:10:11 31° 266° (W) 21:12:33 436.750
HO-68 01 Jul 21:11:01 21:17:40 42° 75° (ENE) 21:24:17 435.675
STRAND 1 01 Jul 21:15:17 21:20:16 54° 282° (WNW) 21:25:15 437.568
CUTE-I 01 Jul 21:20:04 21:21:28 11° 257° (WSW) 21:22:53 437.470
COMPASS 1 01 Jul 21:25:34 21:28:29 18° 78° (ENE) 21:31:23 437.405
CANX-2 01 Jul 21:35:11 21:39:27 80° 80° (E) 21:43:43 2200.000
CINEMA 3 01 Jul 21:36:49 21:41:05 83° 79° (ENE) 21:45:14 145.822/145.860
PRISM 01 Jul 21:50:42 21:54:29 38° 102° (ESE) 21:58:17 437.425
SEEDS 01 Jul 21:52:31 21:56:44 77° 80° (E) 22:00:58 437.485
UWE-3 01 Jul 21:54:01 21:56:35 16° 78° (ENE) 21:59:08 435.000/436.395/437.385
CUTE 1.7 + AOD 2 01 Jul 21:54:35 21:58:48 63° 259° (W) 22:03:00 437.475
AO-85 01 Jul 22:02:57 22:04:26 11° 293° (WNW) 22:05:55 145.980
SRMSAT 01 Jul 22:07:58 22:12:08 20° 15° (NNE) 22:16:19 437.500
AAUSAT CUBESAT 2 01 Jul 22:22:13 22:26:24 82° 259° (W) 22:30:35 437.432
M-CUBED/EXP-1 PRIME 01 Jul 22:24:25 22:27:41 39° 75° (ENE) 22:30:47 437.505
JUGNU 01 Jul 22:35:14 22:41:13 79° 21° (NNE) 22:47:09 437.505
CUBEBUG 2 01 Jul 22:48:38 22:52:33 41° 259° (WSW) 22:56:27 437.445
ZACube-1 01 Jul 22:59:58 23:04:07 87° 256° (WSW) 23:08:17 437.345
HO-68 01 Jul 22:59:59 23:05:02 21° 255° (WSW) 23:10:06 435.675
COMPASS 1 01 Jul 23:01:03 23:03:47 17° 258° (WSW) 23:06:29 437.405
Oscar 11 01 Jul 23:03:07 23:07:26 71° 259° (W) 23:11:43 145.826/435.025
RS-15 01 Jul 23:09:54 23:22:06 73° 70° (ENE) 23:33:47 29.354- 29.394
FUNcube-1 01 Jul 23:15:46 23:19:47 53° 258° (WSW) 23:23:52 145.935
AUBIESAT-1 01 Jul 23:16:38 23:19:42 29° 254° (WSW) 23:22:39 437.475
UWE-3 01 Jul 23:29:57 23:32:47 18° 258° (WSW) 23:35:37 435.000/436.395/437.385
TIGRISAT 01 Jul 23:33:10 23:37:25 34° 102° (ESE) 23:41:38 435.000
UNISAT 6 01 Jul 23:39:13 23:43:42 45° 102° (ESE) 23:48:09 437.425
DELFI C3 01 Jul 23:41:17 23:45:12 50° 259° (W) 23:49:06 145.870
HUMSAT D 01 Jul 23:43:46 23:47:48 56° 79° (ENE) 23:51:52 437.325/437.525
SRMSAT 01 Jul 23:55:59 00:01:39 47° 20° (NNE) 00:07:19 437.500
Cosmos 2491 02 Jul 00:02:38 00:07:14 15° 93° (E) 00:11:47 435.465 / 435.565
ANTELSAT 02 Jul 00:18:46 00:23:20 51° 282° (WNW) 00:27:52 437.575/2403.000
AISAT 02 Jul 00:22:06 00:23:06 11° 78° (ENE) 00:24:06 437.250
JUGNU 02 Jul 00:24:50 00:30:17 38° 200° (SSW) 00:35:44 437.505
ESTCUBE 1 02 Jul 00:29:09 00:32:57 26° 78° (ENE) 00:36:44 437.505/2401.250
PCSat 02 Jul 00:44:09 00:48:31 25° 110° (ESE) 00:52:52 145.827
NANOSAT C BR1 02 Jul 00:44:33 00:48:21 32° 102° (ESE) 00:52:10 145.865
QB50P1 02 Jul 00:49:20 00:53:21 40° 102° (ESE) 00:57:23 145.935-145.965
POPSAT HIP 1 02 Jul 00:52:49 00:56:54 45° 102° (ESE) 01:01:01 437.405
BEESAT 3 02 Jul 00:55:30 00:58:28 21° 112° (ESE) 01:01:26 437.485
CUBEBUG 1 02 Jul 00:56:49 01:00:54 38° 78° (ENE) 01:04:56 437.445
50 SAT 02 Jul 01:02:01 01:05:33 44° 79° (ENE) 01:09:05 437.505
DUCHIFAT 1 02 Jul 01:03:02 01:07:12 56° 102° (ESE) 01:11:24 145.980
QB50P2 02 Jul 01:05:51 01:10:07 80° 100° (E) 01:14:25 145.880/145.840
POLYITAN 1 02 Jul 01:08:28 01:12:46 82° 104° (ESE) 01:17:04 437.675
YUBILEINY 02 Jul 01:11:28 01:20:02 57° 87° (E) 01:28:37 435.215
TIGRISAT 02 Jul 01:12:13 01:13:48 12° 282° (WNW) 01:15:23 435.000
VELOX 1 02 Jul 01:13:42 01:18:05 60° 78° (ENE) 01:22:26 145.980
RS-15 02 Jul 01:26:35 01:34:07 19° 248° (WSW) 01:41:34 29.354- 29.394
SPROUT 02 Jul 01:31:25 01:35:18 34° 78° (ENE) 01:39:09 437.525
UKube-1 02 Jul 01:36:10 01:40:28 68° 78° (ENE) 01:44:45 .
BEESAT 2 02 Jul 01:39:29 01:43:12 41° 111° (ESE) 01:46:55 435.950
BUGSAT 1 02 Jul 01:44:28 01:48:39 83° 104° (ESE) 01:52:53 437.445
SRMSAT 02 Jul 01:45:00 01:50:51 63° 202° (SSW) 01:56:43 437.500
JAS-2 02 Jul 01:50:47 01:55:32 37° 103° (ESE) 02:00:28 435.910
Cosmos 2491 02 Jul 01:55:01 02:03:42 62° 273° (W) 02:12:18 435.465 / 435.565
AISAT 02 Jul 01:55:23 01:59:19 31° 258° (WSW) 02:03:14 437.250
DX 1 02 Jul 02:02:56 02:06:56 36° 258° (WSW) 02:10:55 434.975-435.025
Cosmos 2504 02 Jul 02:05:56 02:13:19 34° 86° (E) 02:20:14 435.465 / 435.565
ESTCUBE 1 02 Jul 02:07:08 02:09:29 14° 258° (WSW) 02:11:50 437.505/2401.250
JUGNU 02 Jul 02:16:05 02:19:44 17° 194° (SSW) 02:23:23 437.505
PCSat 02 Jul 02:27:36 02:31:38 21° 290° (WNW) 02:35:41 145.827
BEESAT 3 02 Jul 02:34:11 02:35:53 12° 292° (WNW) 02:37:35 437.485
TISAT 1 02 Jul 02:38:37 02:42:43 55° 79° (ENE) 02:46:46 437.305
O/OREOS (USA 219) 02 Jul 02:50:31 02:54:49 42° 284° (WNW) 02:59:04 437.305
Oscar 19 02 Jul 02:59:08 03:04:14 71° 102° (ESE) 03:09:23 437.125/150
SO-50 02 Jul 03:01:35 03:06:00 74° 248° (WSW) 03:10:21 436.795
PHONESAT 2.4 02 Jul 03:06:12 03:09:16 69° 317° (NW) 03:12:18 2401.200-2431.200
SWISSCUBE 02 Jul 03:10:20 03:13:49 20° 77° (ENE) 03:17:17 437.505
YUBILEINY 02 Jul 03:11:09 03:16:26 17° 267° (W) 03:21:46 435.215
ITAMSAT 1 02 Jul 03:31:56 03:34:39 14° 103° (ESE) 03:37:20 435.822/435.867
BEESAT 02 Jul 03:34:17 03:38:40 36° 78° (ENE) 03:43:02 436.000
SRMSAT 02 Jul 03:35:30 03:40:15 25° 197° (SSW) 03:44:59 437.500
ITUPSAT 1 02 Jul 03:37:37 03:42:05 39° 78° (ENE) 03:46:33 437.325
JAS-2 02 Jul 03:38:49 03:40:27 11° 282° (WNW) 03:42:07 435.910
Gurwin Techsat 1B 02 Jul 03:44:18 03:49:37 84° 103° (ESE) 03:54:57 435.225
